Time,TemperatureF,DewpointF,PressureIn,WindDirection,WindDirectionDegrees,WindSpeedMPH,WindSpeedGustMPH,Humidity,HourlyPrecipIn,Conditions,Clouds,dailyrainin,SoftwareType,DateUTC
2013-09-03 00:15:00,58.2,57.0,29.95,NNE,26,0.0,2.0,94,0.00,,,0.01,weatherlink.com 1.10,2013-09-03 07:15:00,
2013-09-03 00:30:00,57.9,56.0,29.95,NNE,26,0.0,1.0,94,0.00,,,0.01,weatherlink.com 1.10,2013-09-03 07:30:00,
2013-09-03 00:45:00,58.5,56.0,29.95,NNE,24,0.0,0.0,92,0.00,,,0.00,weatherlink.com 1.10,2013-09-03 07:45:00,
2013-09-03 01:00:00,58.2,56.0,29.95,NNE,29,0.0,2.0,92,0.00,,,0.00,weatherlink.com 1.10,2013-09-03 08:00:00,
2013-09-03 01:15:00,57.8,56.0,29.96,NNE,30,0.0,1.0,93,0.00,,,0.00,weatherlink.com 1.10,2013-09-03 08:15:00,
2013-09-03 01:30:00,57.8,56.0,29.96,NNE,30,0.0,3.0,93,0.00,,,0.00,weatherlink.com 1.10,2013-09-03 08:30:00,
2013-09-03 01:45:00,57.7,56.0,29.96,NNE,32,0.0,2.0,93,0.00,,,0.00,weatherlink.com 1.10,2013-09-03 08:45:00,
2013-09-03 02:00:00,57.3,55.0,29.96,NNE,27,1.0,5.0,93,0.00,,,0.00,weatherlink.com 1.10,2013-09-03 09:00:00,
2013-09-03 02:31:00,56.6,55.0,29.96,NNE,33,0.0,2.0,94,0.00,,,0.00,weatherlink.com 1.10,2013-09-03 09:31:00,
2013-09-03 02:46:00,56.4,55.0,29.95,NE,39,0.0,4.0,94,0.00,,,0.00,weatherlink.com 1.10,2013-09-03 09:46:00,
2013-09-03 03:01:00,56.0,54.0,29.96,NNE,33,0.0,1.0,94,0.00,,,0.00,weatherlink.com 1.10,2013-09-03 10:01:00,
2013-09-03 03:16:00,56.0,54.0,29.95,NE,34,0.0,5.0,94,0.00,,,0.00,weatherlink.com 1.10,2013-09-03 10:16:00,
2013-09-03 03:31:00,56.0,54.0,29.96,NE,34,0.0,6.0,94,0.00,,,0.00,weatherlink.com 1.10,2013-09-03 10:31:00,
2013-09-03 03:46:00,55.8,54.0,29.96,NNE,26,0.0,3.0,94,0.00,,,0.00,weatherlink.com 1.10,2013-09-03 10:46:00,
2013-09-03 04:01:00,55.2,54.0,29.96,NNE,33,0.0,4.0,94,0.00,,,0.00,weatherlink.com 1.10,2013-09-03 11:01:00,
2013-09-03 04:16:00,54.9,53.0,29.96,NNE,26,0.0,3.0,94,0.00,,,0.00,weatherlink.com 1.10,2013-09-03 11:16:00,
2013-09-03 04:31:00,54.6,53.0,29.96,NNE,28,0.0,2.0,93,0.00,,,0.00,weatherlink.com 1.10,2013-09-03 11:31:00,
2013-09-03 04:46:00,54.1,53.0,29.96,NNE,30,0.0,3.0,94,0.00,,,0.00,weatherlink.com 1.10,2013-09-03 11:46:00,
2013-09-03 05:01:00,53.9,52.0,29.96,NNE,28,1.0,1.0,94,0.00,,,0.00,weatherlink.com 1.10,2013-09-03 12:01:00,
2013-09-03 05:16:00,53.7,52.0,29.96,North,9,2.0,2.0,94,0.00,,,0.00,weatherlink.com 1.10,2013-09-03 12:16:00,
2013-09-03 05:31:00,54.3,53.0,29.97,NNE,30,0.0,3.0,94,0.00,,,0.00,weatherlink.com 1.10,2013-09-03 12:31:00,
2013-09-03 05:46:00,54.1,53.0,29.97,NE,34,0.0,3.0,94,0.00,,,0.00,weatherlink.com 1.10,2013-09-03 12:46:00,
2013-09-03 06:01:00,53.3,52.0,29.96,NNE,33,0.0,2.0,94,0.00,,,0.00,weatherlink.com 1.10,2013-09-03 13:01:00,
2013-09-03 06:16:00,53.3,52.0,29.97,NE,34,1.0,4.0,94,0.00,,,0.00,weatherlink.com 1.10,2013-09-03 13:16:00,
2013-09-03 06:31:00,53.4,52.0,29.97,NE,34,0.0,6.0,94,0.00,,,0.00,weatherlink.com 1.10,2013-09-03 13:31:00,
2013-09-03 06:46:00,53.4,52.0,29.97,NE,50,0.0,7.0,94,0.00,,,0.00,weatherlink.com 1.10,2013-09-03 13:46:00,
2013-09-03 07:01:00,53.4,52.0,29.98,NNE,27,0.0,5.0,94,0.00,,,0.00,weatherlink.com 1.10,2013-09-03 14:01:00,
2013-09-03 07:16:00,52.5,51.0,29.98,NNE,28,0.0,5.0,94,0.00,,,0.00,weatherlink.com 1.10,2013-09-03 14:16:00,
2013-09-03 07:31:00,52.1,51.0,29.99,NNE,32,0.0,6.0,94,0.00,,,0.00,weatherlink.com 1.10,2013-09-03 14:31:00,
2013-09-03 07:46:00,52.1,51.0,29.99,NNE,26,0.0,1.0,94,0.00,,,0.00,weatherlink.com 1.10,2013-09-03 14:46:00,
2013-09-03 08:01:00,53.0,51.0,29.99,NNE,29,0.0,1.0,94,0.00,,,0.00,weatherlink.com 1.10,2013-09-03 15:01:00,
2013-09-03 08:16:00,54.2,52.0,30.00,NNE,32,0.0,1.0,93,0.00,,,0.00,weatherlink.com 1.10,2013-09-03 15:16:00,
2013-09-03 08:31:00,54.4,52.0,30.00,NNE,29,0.0,3.0,92,0.00,,,0.00,weatherlink.com 1.10,2013-09-03 15:31:00,
2013-09-03 08:46:00,56.1,54.0,30.00,NNE,24,0.0,3.0,92,0.00,,,0.00,weatherlink.com 1.10,2013-09-03 15:46:00,
2013-09-03 09:01:00,58.1,55.0,30.00,NNE,22,0.0,4.0,90,0.00,,,0.00,weatherlink.com 1.10,2013-09-03 16:01:00,
2013-09-03 09:16:00,60.0,57.0,30.01,NNE,25,0.0,0.0,88,0.00,,,0.00,weatherlink.com 1.10,2013-09-03 16:16:00,
2013-09-03 09:30:00,62.9,57.0,30.01,SW,216,1.0,3.0,81,0.00,,,0.00,weatherlink.com 1.10,2013-09-03 16:30:00,
2013-09-03 09:45:00,62.1,56.0,30.01,SSW,202,1.0,4.0,80,0.00,,,0.00,weatherlink.com 1.10,2013-09-03 16:45:00,
2013-09-03 10:00:00,62.3,56.0,30.01,SW,232,0.0,4.0,80,0.00,,,0.00,weatherlink.com 1.10,2013-09-03 17:00:00,
2013-09-03 10:15:00,63.2,57.0,30.01,SW,219,4.0,5.0,79,0.00,,,0.00,weatherlink.com 1.10,2013-09-03 17:15:00,
2013-09-03 10:31:00,62.7,56.0,30.02,SW,219,4.0,5.0,79,0.00,,,0.00,weatherlink.com 1.10,2013-09-03 17:31:00,
2013-09-03 10:46:00,62.6,56.0,30.02,South,182,3.0,6.0,80,0.00,,,0.00,weatherlink.com 1.10,2013-09-03 17:46:00,
2013-09-03 11:01:00,63.1,57.0,30.02,SSW,196,5.0,7.0,80,0.00,,,0.00,weatherlink.com 1.10,2013-09-03 18:01:00,
2013-09-03 11:16:00,63.6,57.0,30.02,SW,233,6.0,8.0,79,0.00,,,0.00,weatherlink.com 1.10,2013-09-03 18:16:00,
2013-09-03 11:31:00,63.8,58.0,30.02,SSW,202,4.0,8.0,81,0.00,,,0.00,weatherlink.com 1.10,2013-09-03 18:31:00,
2013-09-03 11:46:00,65.2,59.0,30.02,SSW,200,7.0,11.0,81,0.00,,,0.00,weatherlink.com 1.10,2013-09-03 18:46:00,
2013-09-03 12:01:00,66.4,60.0,30.02,SSW,207,7.0,9.0,79,0.00,,,0.00,weatherlink.com 1.10,2013-09-03 19:01:00,
2013-09-03 12:16:00,67.2,60.0,30.02,South,186,6.0,11.0,77,0.00,,,0.00,weatherlink.com 1.10,2013-09-03 19:16:00,
2013-09-03 12:31:00,67.7,60.0,30.01,South,181,7.0,10.0,77,0.00,,,0.00,weatherlink.com 1.10,2013-09-03 19:31:00,
2013-09-03 12:46:00,68.0,60.0,30.01,SSW,203,7.0,11.0,76,0.00,,,0.00,weatherlink.com 1.10,2013-09-03 19:46:00,
2013-09-03 13:01:00,68.0,60.0,30.00,South,186,6.0,11.0,76,0.00,,,0.00,weatherlink.com 1.10,2013-09-03 20:01:00,
2013-09-03 13:16:00,66.7,60.0,30.00,SSW,205,7.0,10.0,79,0.00,,,0.00,weatherlink.com 1.10,2013-09-03 20:16:00,
2013-09-03 13:31:00,67.5,60.0,30.00,WSW,237,10.0,10.0,78,0.00,,,0.00,weatherlink.com 1.10,2013-09-03 20:31:00,
2013-09-03 13:46:00,67.6,61.0,30.00,SSW,201,6.0,11.0,78,0.00,,,0.00,weatherlink.com 1.10,2013-09-03 20:46:00,
2013-09-03 14:01:00,67.2,60.0,30.00,SSW,205,7.0,12.0,78,0.00,,,0.00,weatherlink.com 1.10,2013-09-03 21:01:00,
2013-09-03 14:16:00,68.2,61.0,29.99,SSW,210,6.0,11.0,77,0.00,,,0.00,weatherlink.com 1.10,2013-09-03 21:16:00,
2013-09-03 14:31:00,68.3,61.0,29.99,SSW,209,7.0,11.0,77,0.00,,,0.00,weatherlink.com 1.10,2013-09-03 21:31:00,
2013-09-03 14:46:00,68.5,61.0,29.99,SSE,165,5.0,10.0,76,0.00,,,0.00,weatherlink.com 1.10,2013-09-03 21:46:00,
2013-09-03 15:01:00,67.8,60.0,29.99,SSW,192,7.0,11.0,77,0.00,,,0.00,weatherlink.com 1.10,2013-09-03 22:01:00,
2013-09-03 15:16:00,68.0,61.0,29.98,South,177,5.0,10.0,77,0.00,,,0.00,weatherlink.com 1.10,2013-09-03 22:16:00,
2013-09-03 15:31:00,68.5,60.0,29.98,South,189,4.0,10.0,75,0.00,,,0.00,weatherlink.com 1.10,2013-09-03 22:31:00,
2013-09-03 15:46:00,68.8,61.0,29.98,SSW,211,5.0,10.0,75,0.00,,,0.00,weatherlink.com 1.10,2013-09-03 22:46:00,
2013-09-03 16:01:00,69.9,62.0,29.98,West,278,1.0,8.0,75,0.00,,,0.00,weatherlink.com 1.10,2013-09-03 23:01:00,
2013-09-03 16:16:00,70.7,62.0,29.97,West,280,5.0,7.0,74,0.00,,,0.00,weatherlink.com 1.10,2013-09-03 23:16:00,
2013-09-03 16:31:00,71.2,62.0,29.96,SSE,159,3.0,9.0,73,0.00,,,0.00,weatherlink.com 1.10,2013-09-03 23:31:00,
2013-09-03 16:46:00,72.0,62.0,29.96,South,182,2.0,11.0,71,0.00,,,0.00,weatherlink.com 1.10,2013-09-03 23:46:00,
2013-09-03 17:01:00,71.5,61.0,29.96,NNW,330,1.0,8.0,70,0.00,,,0.00,weatherlink.com 1.10,2013-09-04 00:01:00,
2013-09-03 17:31:00,71.9,62.0,29.96,SSW,206,2.0,5.0,70,0.00,,,0.00,weatherlink.com 1.10,2013-09-04 00:31:00,
2013-09-03 17:46:00,71.1,61.0,29.96,SSW,213,1.0,5.0,71,0.00,,,0.00,weatherlink.com 1.10,2013-09-04 00:46:00,
2013-09-03 18:01:00,71.2,61.0,29.95,SSW,193,3.0,5.0,71,0.00,,,0.00,weatherlink.com 1.10,2013-09-04 01:01:00,
2013-09-03 18:16:00,70.1,60.0,29.95,SW,216,1.0,6.0,71,0.00,,,0.00,weatherlink.com 1.10,2013-09-04 01:16:00,
2013-09-03 18:31:00,69.0,60.0,29.95,South,190,1.0,7.0,74,0.00,,,0.00,weatherlink.com 1.10,2013-09-04 01:31:00,
2013-09-03 18:46:00,68.9,60.0,29.95,SSW,200,2.0,4.0,74,0.00,,,0.00,weatherlink.com 1.10,2013-09-04 01:46:00,
2013-09-03 19:01:00,68.8,60.0,29.95,SSW,211,0.0,2.0,74,0.00,,,0.00,weatherlink.com 1.10,2013-09-04 02:01:00,
2013-09-03 19:17:00,67.2,59.0,29.95,South,190,1.0,4.0,75,0.00,,,0.00,weatherlink.com 1.10,2013-09-04 02:17:00,
2013-09-03 19:32:00,65.8,59.0,29.96,WSW,246,0.0,2.0,78,0.00,,,0.00,weatherlink.com 1.10,2013-09-04 02:32:00,
2013-09-03 19:47:00,64.6,58.0,29.96,SW,228,0.0,0.0,80,0.00,,,0.00,weatherlink.com 1.10,2013-09-04 02:47:00,
2013-09-03 20:02:00,63.6,58.0,29.96,SW,228,0.0,0.0,83,0.00,,,0.00,weatherlink.com 1.10,2013-09-04 03:02:00,
2013-09-03 20:17:00,62.9,58.0,29.96,SW,228,0.0,0.0,84,0.00,,,0.00,weatherlink.com 1.10,2013-09-04 03:17:00,
2013-09-03 20:32:00,62.2,58.0,29.97,SW,228,0.0,0.0,86,0.00,,,0.00,weatherlink.com 1.10,2013-09-04 03:32:00,
2013-09-03 20:47:00,61.9,58.0,29.98,SW,236,0.0,0.0,87,0.00,,,0.00,weatherlink.com 1.10,2013-09-04 03:47:00,
2013-09-03 21:02:00,61.6,58.0,29.98,SW,236,0.0,0.0,88,0.00,,,0.00,weatherlink.com 1.10,2013-09-04 04:02:00,
2013-09-03 21:17:00,61.2,58.0,29.98,SW,236,0.0,0.0,88,0.00,,,0.00,weatherlink.com 1.10,2013-09-04 04:17:00,
2013-09-03 21:33:00,61.1,58.0,29.98,NW,307,0.0,0.0,89,0.00,,,0.00,weatherlink.com 1.10,2013-09-04 04:33:00,
2013-09-03 21:47:00,60.9,58.0,29.98,NW,325,0.0,0.0,89,0.00,,,0.00,weatherlink.com 1.10,2013-09-04 04:47:00,
2013-09-03 22:02:00,60.9,58.0,29.98,North,5,0.0,1.0,90,0.00,,,0.00,weatherlink.com 1.10,2013-09-04 05:02:00,
2013-09-03 22:17:00,61.0,58.0,29.98,North,9,0.0,2.0,89,0.00,,,0.00,weatherlink.com 1.10,2013-09-04 05:17:00,
2013-09-03 22:32:00,60.9,58.0,29.98,North,9,0.0,1.0,89,0.00,,,0.00,weatherlink.com 1.10,2013-09-04 05:32:00,
2013-09-03 22:47:00,60.5,58.0,29.98,North,9,0.0,0.0,90,0.00,,,0.00,weatherlink.com 1.10,2013-09-04 05:47:00,
2013-09-03 23:02:00,60.2,57.0,29.98,North,9,0.0,0.0,90,0.00,,,0.00,weatherlink.com 1.10,2013-09-04 06:02:00,
2013-09-03 23:17:00,59.8,57.0,29.99,North,9,0.0,0.0,91,0.00,,,0.00,weatherlink.com 1.10,2013-09-04 06:17:00,
2013-09-03 23:32:00,59.2,57.0,29.98,North,9,0.0,1.0,91,0.00,,,0.00,weatherlink.com 1.10,2013-09-04 06:32:00,
2013-09-03 23:47:00,59.0,57.0,29.99,NNE,17,0.0,0.0,92,0.00,,,0.00,weatherlink.com 1.10,2013-09-04 06:47:00,